Regional Weather Roundup
Issued by NWS

Home | Current Version | Previous Version | Graphics & Text | Print | Product List | Glossary On
Versions: 1 2 3 4 5 6 7 8 9 10 11 12 13 14 15 16 17 18 19 20 21 22 23 24 25 26 27 28 29 30 31 32 33 34 35 36 37 38 39 40 41 42 43 44 45 46 47 48 49 50
000
ASUS45 KSLC 291210
RWRUT

UTAH REGIONAL WEATHER ROUNDUP
NATIONAL WEATHER SERVICE SALT LAKE CITY UT
600 AM MDT WED MAR 29 2017

UTZ001>011-023>025-291300-

NORTHERN UTAH

CITY           SKY/WX    TMP DP  RH WIND       PRES   REMARKS
BRIGHAM CITY     N/A     35  30  83 W5        30.23F WCI  31
HILL AFB       CLEAR     34  26  70 E9        30.22S WCI  27
LOGAN          CLEAR     33  27  78 CALM      30.24S
OGDEN          CLEAR     32  27  81 S8        30.22F WCI  25
SALT LAKE CITY CLEAR     38  31  76 NE6       30.23S WCI  33
TOOELE VALLEY  CLEAR     32  30  93 SE6       30.24S WCI  26
WENDOVER       CLEAR     37  26  64 N3        30.25R
HEBER CITY     PTCLDY    28  21  74 CALM      30.22R
WEST JORDAN    CLEAR     38  36  92 CALM      30.24S

$$

UTZ011>015-024>027-291300-

CENTRAL/NORTHEAST UTAH

CITY           SKY/WX    TMP DP  RH WIND       PRES   REMARKS
PROVO AIRPORT  CLEAR     33  29  85 SE3       30.25R
MOAB/CANYONLAN CLEAR     35  29  78 CALM      30.12R
DELTA          CLEAR     30  28  93 SE3       30.24R
PRICE          CLEAR     38  22  52 NW8G20    30.12S WCI  32
ROOSEVELT      CLEAR     32  28  86 CALM      30.18R
VERNAL         CLEAR     29  24  82 VRB3      30.16R

$$

UTZ013>016-019>022-027-291300-

SOUTHERN UTAH

CITY           SKY/WX    TMP DP  RH WIND       PRES   REMARKS
BRYCE CANYON   CLEAR     26  19  74 NW9       30.18R WCI  17
CEDAR CITY     CLEAR     26  23  88 N5        30.19S WCI  20
MILFORD        CLEAR     28  25  88 CALM      30.22S
ST GEORGE      MOSUNNY   46  25  43 CALM      30.13R
HANKSVILLE     CLEAR     34  23  64 CALM      30.15R
BLANDING       CLEAR     41  27  58 N24G31    30.09R

$$

REGIONAL REPORTS     COLORADO/ARIZONA

CITY           SKY/WX    TMP DP  RH WIND       PRES   REMARKS
CRAIG, CO      CLOUDY    30  26  85 W3        30.16R
GRAND JUNCTION CLOUDY    42  30  62 W6        30.11R
RIFLE, CO      CLOUDY    33  31  92 E8        30.11R WCI  26
MONTROSE, CO   CLEAR     35  30  82 CALM      30.10R
CORTEZ, CO     CLOUDY    40  30  67 N7        30.00R
COLORADO CITY    N/A     28  25  86 E7        30.16R WCI  21
PAGE, AZ       CLEAR     46  24  42 W3        30.09R
GRAND CANYON   CLEAR     24  21  88 CALM      30.13R
KINGMAN, AZ    CLEAR     39  15  37 E8        30.09S WCI  33
FLAGSTAFF, AZ  CLEAR     35  20  54 VRB3      30.08S

$$

REGIONAL REPORTS    NEVADA/IDAHO/WYOMING

CITY           SKY/WX    TMP DP  RH WIND       PRES   REMARKS
LAS VEGAS, NV  PTCLDY    56  26  31 E8        30.10F
ELY, NY        CLEAR     23  21  92 S8        30.25S WCI  14
ELKO, NV       CLEAR     30  25  81 CALM      30.26S
POCATELLO, ID  CLEAR     37  29  72 SW9       30.23S WCI  30
BURLEY, ID     CLEAR     34  26  72 SW10      30.21S WCI  26
FORT BRIDGER,    N/A     29  26  88 SW9       30.23S WCI  20
EVANSTON, WY   CLOUDY    26  20  77 SW5       30.21S WCI  20
ROCK SPRINGS,  CLEAR     28  22  78 W13       30.18R WCI  17

$$



USA.gov is the U.S. government's official web portal to all federal, state and local government web resources and services.